FLOCK 4H 14

导读

FLOCK 4H 14是一颗由美国发射的卫星,于2025年11月28日在加州空军西部试验场升空,隶属于Planet Labs公司的Flock卫星星座。该系列卫星多为地球观测微小卫星,主要提供高分辨率遥感影像服务,可服务于农业监测、城市规划、灾害响应与地理信息采集等领域,目前已在轨正常运行,延续了Planet Labs星座持续更新对地观测能力的布局。

Basic Information
目录编号:
66717
目录名称:
FLOCK 4H 14
国际标识:
2025-276BD
轨道中心:
EARTH
卫星名称:
FLOCK 4H 14
卫星全名:
FLOCK 4H 14
卫星状态:
在轨 (已飞行281 天)
发射日期:
2025-11-28 UTC
国别 :
美国 (US)
星等 :
--
Orbit Information
数据来源 国际轨道数据
星历时间: 2026-09-05T12:05:28+0800
13小时前
查看轨道信息
半长轴: 6878.033km
偏心率: 0.0002109
轨道倾角: 97.414°
近地点辐角 70.424°
升交点赤经 320.894°
平近点角 289.722°
近地点: 498.445km
远地点: 501.347km
周期: 94.614分钟
每日圈数: 15.219711
Detailed Information
使用方式:
暂无
2D Orbit Map
3D Orbit Map
Orbit Altitude Analysis Chart
Orbit Inclination Analysis Chart
Orbit Comprehensive Analysis Chart
View Comprehensive Chart
Conjunction Data List
Event ID Objects TCA Miss Dist (km) Collision Risk Probability Collision Risk Index (CRI) Action
CDM_260907-133706-671706-902422
BALKAN-2 (69024)
2026-09-07T
13:37:22+0000
1.723 km
极远距离
4.391485E-6 低风险 0.48
CDM_260907-102806-671706-900422
GEN1A-1 (69004)
2026-09-07T
10:28:03+0000
2.715 km
极远距离
1.549682E-6 低风险 0.39
CDM_260906-204206-312606-671721
2026-09-06T
20:42:36+0000
2.615 km
极远距离
8.872172E-7 极低风险 0.34